Location: Newark
(43.0000°N, 1.6781°W)
Time: 22:49:21
(UTC+00:00)

Vanguard 1 Rocket - Pass Details

Date: 28 April 2021
Orbit: 652 x 4224 km, 34.3° (Epoch: 10 May)

Event Time Altitude Azimuth Distance (km) Brightness Sun altitude
Rises 10:12:28 0° 228° (SW) 6,619 11.8 52.6°
Reaches altitude 10° 10:18:12 10° 220° (SW) 4,958 11.3 53.4°
Maximum altitude 10:28:28 31° 166° (SSE) 2,427 10.8 54.7°
Drops below altitude 10° 10:34:36 10° 106° (ESE) 2,909 10.6 55.5°
Sets 10:37:02 0° 95° (E) 3,586 10.8 55.7°
